Location: Newark
(44.1667°N, 8.2500°E)
Time: 20:11:48
(UTC+00:00)

S-56A Canister/Altair - Pass Details

Date: 14 December 2019
Orbit: 634 x 2498 km, 38.9° (Epoch: 24 January)

Event Time Altitude Azimuth Distance (km) Brightness Sun altitude
Rises 07:41:21 0° 220° (SW) 5,163 11.8 5.9°
Reaches altitude 10° 07:44:36 10° 214° (SW) 4,393 11.5 6.4°
Maximum altitude 07:56:21 46° 147° (SSE) 2,967 11.5 7.9°
Drops below altitude 10° 08:10:13 10° 82° (E) 5,154 12.3 9.7°
Sets 08:14:22 0° 77° (ENE) 6,106 12.6 10.2°
